FW1241 Weather Reports


Display with metric or nautical units.
time (UTC)temp
F
wind
direction
speed
MPH
gust
MPH
rain 1hr
in
rain 24hr
in
rain mn
in
humidity
%
barometer
mb
20170925204102 83 318 0.0 2.0 0.00 0.00 0.00 28 1010.9
20170925203602 82 239 1.0 3.0 0.00 0.00 0.00 27 1010.9
20170925202602 83 213 1.0 2.0 0.00 0.00 0.00 29 1011.2
20170925202103 83 310 0.0 2.0 0.00 0.00 0.00 29 1011.2
20170925201603 82 115 0.0 2.0 0.00 0.00 0.00 31 1011.3
20170925201103 82 337 1.0 3.0 0.00 0.00 0.00 28 1011.4
20170925200102 83 83 1.0 3.0 0.00 0.00 0.00 31 1011.6
20170925195603 82 169 1.0 5.0 0.00 0.00 0.00 31 1011.7
20170925195102 82 177 0.0 1.0 0.00 0.00 0.00 32 1011.7
20170925194602 81 75 1.0 2.0 0.00 0.00 0.00 29 1011.8
20170925194103 81 138 0.0 2.0 0.00 0.00 0.00 32 1011.9
20170925193602 81 11 1.0 2.0 0.00 0.00 0.00 30 1011.9
20170925193103 80 152 0.0 3.0 0.00 0.00 0.00 35 1011.9
20170925192103 80 112 1.0 5.0 0.00 0.00 0.00 31 1012.1
20170925191602 80 116 1.0 3.0 0.00 0.00 0.00 33 1012.2
20170925191103 80 337 0.0 2.0 0.00 0.00 0.00 33 1012.3
20170925190603 80 127 1.0 3.0 0.00 0.00 0.00 33 1012.4
20170925190103 80 91 0.0 2.0 0.00 0.00 0.00 32 1012.5
20170925185603 79 151 1.0 3.0 0.00 0.00 0.00 36 1012.6
20170925185102 79 280 0.0 2.0 0.00 0.00 0.00 33 1012.6
20170925184603 78 186 1.0 3.0 0.00 0.00 0.00 34 1012.7
20170925183603 78 201 0.0 3.0 0.00 0.00 0.00 35 1012.7
20170925182603 77 135 1.0 3.0 0.00 0.00 0.00 34 1012.8
20170925182102 77 160 2.0 3.0 0.00 0.00 0.00 33 1012.9
20170925181103 77 114 1.0 3.0 0.00 0.00 0.00 34 1013.0
20170925180602 76 242 1.0 3.0 0.00 0.00 0.00 36 1013.0
20170925180103 76 147 1.0 3.0 0.00 0.00 0.00 36 1013.0
20170925175602 76 167 1.0 3.0 0.00 0.00 0.00 36 1013.1
20170925175102 75 148 1.0 3.0 0.00 0.00 0.00 36 1013.2
20170925174603 75 151 2.0 3.0 0.00 0.00 0.00 36 1013.3
20170925174102 74 127 1.0 3.0 0.00 0.00 0.00 38 1013.2
20170925173603 74 173 1.0 3.0 0.00 0.00 0.00 39 1013.3
20170925173102 73 126 1.0 3.0 0.00 0.00 0.00 40 1013.4
20170925172603 73 116 0.0 3.0 0.00 0.00 0.00 42 1013.5
20170925172103 72 123 1.0 3.0 0.00 0.00 0.00 40 1013.5
20170925171102 71 177 2.0 3.0 0.00 0.00 0.00 41 1013.6
20170925170603 71 141 2.0 5.0 0.00 0.00 0.00 41 1013.7
20170925165602 70 128 1.0 2.0 0.00 0.00 0.00 42 1013.8
20170925165102 71 123 1.0 3.0 0.00 0.00 0.00 41 1013.9
20170925163603 70 181 0.0 2.0 0.00 0.00 0.00 45 1014.0
20170925163103 69 131 0.0 2.0 0.00 0.00 0.00 45 1014.0
20170925162603 69 135 1.0 2.0 0.00 0.00 0.00 48 1014.0
20170925161602 67 269 0.0 1.0 0.00 0.00 0.00 48 1014.0
20170925155103 64 337 0.0 1.0 0.00 0.00 0.00 59 1013.9
20170925154102 64 272 0.0 1.0 0.00 0.00 0.00 62 1013.8
20170925153603 63 46 0.0 1.0 0.00 0.00 0.00 62 1013.7
20170925152603 61 110 0.0 0.0 0.00 0.00 0.00 70 1013.6
20170925152103 60 110 0.0 0.0 0.00 0.00 0.00 74 1013.6
20170925151602 59 109 0.0 0.0 0.00 0.00 0.00 76 1013.6
20170925151102 57 109 0.0 0.0 0.00 0.00 0.00 76 1013.6
20170925150603 56 109 0.0 0.0 0.00 0.00 0.00 77 1013.5
20170925150102 55 109 0.0 0.0 0.00 0.00 0.00 79 1013.5
20170925145603 55 109 0.0 0.0 0.00 0.00 0.00 82 1013.4
20170925145103 54 109 0.0 0.0 0.00 0.00 0.00 83 1013.4
20170925144102 53 109 0.0 0.0 0.00 0.00 0.00 84 1013.4
20170925143602 53 108 0.0 0.0 0.00 0.00 0.00 83 1013.4
20170925143102 52 109 0.0 0.0 0.00 0.00 0.00 85 1013.3
20170925142602 52 108 0.0 0.0 0.00 0.00 0.00 86 1013.3
20170925142103 51 109 0.0 0.0 0.00 0.00 0.00 86 1013.2
20170925141603 51 109 0.0 0.0 0.00 0.00 0.00 85 1013.2
20170925135603 51 109 0.0 0.0 0.00 0.00 0.00 84 1013.3
20170925135102 52 109 0.0 0.0 0.00 0.00 0.00 83 1013.2
20170925134602 52 109 0.0 0.0 0.00 0.00 0.00 83 1013.2
20170925133103 52 109 0.0 0.0 0.00 0.00 0.00 82 1013.2
20170925132103 52 109 0.0 0.0 0.00 0.00 0.00 83 1013.0
20170925131103 52 109 0.0 0.0 0.00 0.00 0.00 83 1012.8
20170925130102 52 109 0.0 0.0 0.00 0.00 0.00 84 1012.8
20170925125602 52 108 0.0 0.0 0.00 0.00 0.00 83 1012.9
20170925125103 52 109 0.0 0.0 0.00 0.00 0.00 82 1012.8
20170925124103 51 109 0.0 0.0 0.00 0.00 0.00 82 1012.8
20170925123102 51 109 0.0 0.0 0.00 0.00 0.00 83 1012.7
20170925122602 51 109 0.0 0.0 0.00 0.00 0.00 84 1012.7
20170925121603 51 109 0.0 0.0 0.00 0.00 0.00 84 1012.6
20170925120603 52 109 0.0 0.0 0.00 0.00 0.00 83 1012.6
20170925120103 52 109 0.0 0.0 0.00 0.00 0.00 83 1012.6
20170925115603 53 109 0.0 0.0 0.00 0.00 0.00 82 1012.6
20170925115102 53 109 0.0 0.0 0.00 0.00 0.00 81 1012.6
20170925114602 53 108 0.0 0.0 0.00 0.00 0.00 80 1012.6
20170925113603 52 108 0.0 1.0 0.00 0.00 0.00 81 1012.7
20170925112602 52 108 0.0 0.0 0.00 0.00 0.00 81 1012.7
20170925112103 52 109 0.0 0.0 0.00 0.00 0.00 82 1012.8
20170925111602 52 109 0.0 0.0 0.00 0.00 0.00 83 1012.8
20170925111103 52 109 0.0 0.0 0.00 0.00 0.00 83 1012.8
20170925110603 53 108 0.0 0.0 0.00 0.00 0.00 84 1012.8
20170925104103 53 108 0.0 0.0 0.00 0.00 0.00 84 1012.6
20170925102102 53 108 0.0 0.0 0.00 0.00 0.00 82 1012.6
20170925101603 54 108 0.0 0.0 0.00 0.00 0.00 82 1012.7
20170925101102 54 108 0.0 0.0 0.00 0.00 0.00 81 1012.7
20170925100103 53 108 0.0 0.0 0.00 0.00 0.00 81 1012.7
20170925094603 54 109 0.0 0.0 0.00 0.00 0.00 80 1012.7
20170925094103 55 109 0.0 0.0 0.00 0.00 0.00 80 1012.7
20170925093603 55 108 0.0 0.0 0.00 0.00 0.00 79 1012.7
20170925093102 55 109 0.0 0.0 0.00 0.00 0.00 79 1012.7
20170925092102 55 109 0.0 0.0 0.00 0.00 0.00 79 1012.6
20170925091103 55 109 0.0 0.0 0.00 0.00 0.00 79 1012.7
20170925090603 55 109 0.0 6.0 0.00 0.00 0.00 76 1012.7
20170925085603 55 109 0.0 1.0 0.00 0.00 0.00 75 1012.6
20170925085102 56 109 0.0 0.0 0.00 0.00 0.00 77 1012.7
20170925084602 56 109 0.0 0.0 0.00 0.00 0.00 77 1012.7
20170925084103 56 109 0.0 0.0 0.00 0.00 0.00 76 1012.7
20170925083603 56 109 0.0 0.0 0.00 0.00 0.00 71 1012.6
20170925083102 56 109 0.0 0.0 0.00 0.00 0.00 70 1012.6
20170925082602 56 108 0.0 0.0 0.00 0.00 0.00 70 1012.6
20170925082103 56 109 0.0 0.0 0.00 0.00 0.00 72 1012.6
20170925081603 56 109 0.0 0.0 0.00 0.00 0.00 72 1012.6
20170925081103 56 108 0.0 0.0 0.00 0.00 0.00 74 1012.6
20170925080603 56 108 0.0 0.0 0.00 0.00 0.00 74 1012.6
20170925080103 56 108 0.0 0.0 0.00 0.00 0.00 76 1012.6
20170925075103 56 108 0.0 0.0 0.00 0.00 0.00 76 1012.7
20170925074602 56 108 0.0 0.0 0.00 0.00 0.00 75 1012.7
20170925074103 56 109 0.0 0.0 0.00 0.00 0.00 76 1012.7
20170925073602 56 109 0.0 0.0 0.00 0.00 0.00 77 1012.7
20170925073103 57 109 0.0 0.0 0.00 0.00 0.00 76 1012.6
20170925072603 57 108 0.0 0.0 0.00 0.00 0.00 77 1012.6
20170925071603 57 108 0.0 0.0 0.00 0.00 0.00 76 1012.6
20170925070603 57 109 0.0 0.0 0.00 0.00 0.00 75 1012.6
20170925070103 57 109 0.0 0.0 0.00 0.00 0.00 74 1012.5
20170925065603 58 108 0.0 0.0 0.00 0.00 0.00 72 1012.5
20170925064103 59 109 0.0 0.0 0.00 0.00 0.00 71 1012.4
20170925063104 59 109 0.0 0.0 0.00 0.00 0.00 68 1012.5
20170925062603 60 108 0.0 0.0 0.00 0.00 0.00 67 1012.5
20170925061103 60 108 0.0 1.0 0.00 0.00 0.00 63 1012.6
20170925060603 60 109 0.0 1.0 0.00 0.00 0.00 64 1012.6
20170925060103 60 152 0.0 0.0 0.00 0.00 0.00 65 1012.6
20170925055602 60 152 0.0 0.0 0.00 0.00 0.00 67 1012.5
20170925054603 60 293 0.0 0.0 0.00 0.00 0.00 69 1012.5
20170925054103 61 296 0.0 0.0 0.00 0.00 0.00 66 1012.4
20170925053603 61 298 0.0 0.0 0.00 0.00 0.00 66 1012.4
20170925053103 62 298 0.0 0.0 0.00 0.00 0.00 64 1012.3
20170925052603 62 298 0.0 0.0 0.00 0.00 0.00 63 1012.2
20170925052103 62 298 0.0 0.0 0.00 0.00 0.00 63 1012.3
20170925051603 63 298 0.0 0.0 0.00 0.00 0.00 62 1012.2
20170925051103 63 298 0.0 0.0 0.00 0.00 0.00 59 1012.1
20170925050603 63 298 0.0 0.0 0.00 0.00 0.00 59 1012.1
20170925050104 63 298 0.0 0.0 0.00 0.00 0.00 59 1012.1
20170925045603 63 298 0.0 0.0 0.00 0.00 0.00 60 1012.0
20170925045103 63 298 0.0 0.0 0.00 0.00 0.00 62 1012.1
20170925044603 63 298 0.0 0.0 0.00 0.00 0.00 60 1012.1
20170925044104 62 298 0.0 0.0 0.00 0.00 0.00 60 1012.0
20170925042604 62 298 0.0 0.0 0.00 0.00 0.00 62 1011.9
20170925042104 62 298 0.0 0.0 0.00 0.00 0.00 62 1011.9
20170925041106 63 298 0.0 0.0 0.00 0.00 0.00 61 1011.8
20170925040603 64 298 0.0 0.0 0.00 0.00 0.00 61 1011.8
20170925035103 64 298 0.0 0.0 0.00 0.00 0.00 57 1011.7
20170925033103 66 298 0.0 0.0 0.00 0.00 0.00 53 1011.5
20170925032103 66 298 0.0 0.0 0.00 0.00 0.00 56 1011.4
20170925031603 66 298 0.0 0.0 0.00 0.00 0.00 57 1011.3
20170925031103 66 297 0.0 0.0 0.00 0.00 0.00 56 1011.3
20170925024603 68 298 0.0 0.0 0.00 0.00 0.00 50 1011.1
20170925024103 68 298 0.0 0.0 0.00 0.00 0.00 49 1011.0
20170925023603 69 298 0.0 0.0 0.00 0.00 0.00 49 1011.0
20170925023103 70 298 0.0 0.0 0.00 0.00 0.00 49 1011.0
20170925022603 70 298 0.0 0.0 0.00 0.00 0.00 45 1010.9
20170925022103 71 298 0.0 0.0 0.00 0.00 0.00 43 1010.9
20170925021103 71 298 0.0 0.0 0.00 0.00 0.00 42 1010.9
20170925020603 72 298 0.0 0.0 0.00 0.00 0.00 40 1010.9
20170925020103 72 298 0.0 0.0 0.00 0.00 0.00 40 1010.9
20170925014603 73 298 0.0 1.0 0.00 0.00 0.00 39 1011.0
20170925014104 73 298 0.0 0.0 0.00 0.00 0.00 38 1011.0
20170925012603 75 298 0.0 1.0 0.00 0.00 0.00 34 1010.9
20170925012103 75 298 0.0 1.0 0.00 0.00 0.00 35 1010.9
20170925011603 76 298 0.0 1.0 0.00 0.00 0.00 33 1010.9
20170925010103 77 308 1.0 3.0 0.00 0.00 0.00 32 1010.9
20170925005603 77 301 1.0 2.0 0.00 0.00 0.00 31 1010.9
20170925004603 78 309 1.0 2.0 0.00 0.00 0.00 29 1010.9
20170925004103 78 311 1.0 2.0 0.00 0.00 0.00 29 1010.9
20170925003103 78 308 1.0 2.0 0.00 0.00 0.00 28 1010.9
20170925002603 79 303 1.0 2.0 0.00 0.00 0.00 27 1010.9
20170925002103 79 312 1.0 3.0 0.00 0.00 0.00 27 1010.9
20170925001603 79 301 2.0 3.0 0.00 0.00 0.00 27 1011.0
20170925000603 80 312 1.0 3.0 0.00 0.00 0.00 27 1010.9
20170925000103 80 335 2.0 3.0 0.00 0.00 0.00 26 1011.0
20170924235603 80 322 2.0 3.0 0.00 0.00 0.00 27 1011.0
20170924235102 80 311 2.0 3.0 0.00 0.00 0.00 26 1011.0
20170924233603 80 316 2.0 3.0 0.00 0.00 0.00 27 1011.0
20170924232603 80 321 1.0 3.0 0.00 0.00 0.00 26 1011.0
20170924232103 80 311 3.0 3.0 0.00 0.00 0.00 26 1011.0
20170924231103 80 295 1.0 3.0 0.00 0.00 0.00 26 1011.1
20170924230103 80 311 1.0 3.0 0.00 0.00 0.00 27 1011.1
20170924225603 80 303 2.0 3.0 0.00 0.00 0.00 28 1011.2
20170924225106 81 259 1.0 3.0 0.00 0.00 0.00 26 1011.3
20170924224603 80 316 1.0 3.0 0.00 0.00 0.00 28 1011.3
20170924224103 80 282 1.0 3.0 0.00 0.00 0.00 26 1011.3
20170924223103 80 297 1.0 3.0 0.00 0.00 0.00 28 1011.4
20170924222603 80 301 1.0 5.0 0.00 0.00 0.00 25 1011.4
20170924222102 81 305 1.0 3.0 0.00 0.00 0.00 26 1011.4
20170924221603 80 321 2.0 3.0 0.00 0.00 0.00 26 1011.5
20170924221103 80 311 2.0 3.0 0.00 0.00 0.00 26 1011.5
20170924220603 80 306 1.0 3.0 0.00 0.00 0.00 26 1011.6
20170924220103 81 306 1.0 3.0 0.00 0.00 0.00 25 1011.6
20170924215104 80 324 2.0 3.0 0.00 0.00 0.00 26 1011.8
20170924214103 81 316 2.0 3.0 0.00 0.00 0.00 26 1011.9
20170924213603 80 315 1.0 3.0 0.00 0.00 0.00 26 1011.9
20170924211603 80 316 1.0 5.0 0.00 0.00 0.00 28 1012.2
20170924211104 80 293 1.0 2.0 0.00 0.00 0.00 26 1012.3
20170924210103 80 308 1.0 3.0 0.00 0.00 0.00 26 1012.3
20170924205603 80 320 2.0 3.0 0.00 0.00 0.00 27 1012.4